Theta_e
319 318 316 315 315 315 316 316 316 315 316 316 316 317 317 317 319 322 324 325 324 324 324 323 323 323 323 325 326 327 327 327 327 327 326 327 327 327 326 326 327 327
319 318 316 315 315 315 316 316 316 316 316 317 317 317 317 318 320 323 324 325 324 323 323 323 324 323 322 324 325 326 326 326 326 326 327 327 327 327 327 326 327 327
320 318 316 315 315 315 316 316 316 317 317 318 318 317 317 319 321 323 323 323 323 322 322 321 321 321 322 323 323 324 325 325 326 326 327 328 328 328 327 327 327 326
320 318 316 315 316 316 316 316 316 317 318 318 318 317 319 321 322 323 323 325 326 325 322 321 321 321 321 322 322 323 324 325 326 326 326 327 327 327 327 327 327 326
320 318 317 316 317 317 316 316 317 317 318 318 318 318 322 324 324 325 326 328 328 327 325 325 325 325 325 325 325 325 325 325 326 327 327 327 327 327 326 326 327 327
321 319 318 317 318 318 317 316 317 318 318 318 318 321 324 325 325 326 328 328 329 329 328 328 327 327 328 328 328 328 327 326 326 328 329 328 328 327 326 326 326 327
322 320 318 318 319 319 317 317 318 318 318 318 319 323 325 325 325 327 328 328 328 329 329 329 328 328 329 329 329 328 328 327 327 328 329 329 328 327 325 325 324 324
322 320 318 318 320 319 317 317 318 318 319 318 320 323 325 325 326 328 328 327 328 329 330 329 329 328 328 330 330 329 328 327 327 327 328 328 328 326 325 324 324 323
322 320 318 318 319 318 317 317 318 319 319 318 320 323 324 323 325 327 326 327 328 329 330 330 329 328 328 330 331 331 329 328 327 327 327 327 327 326 325 325 324 324
322 321 319 318 318 318 317 317 318 318 318 319 321 323 322 322 323 324 325 326 327 328 329 329 329 328 329 330 331 331 329 328 328 328 327 327 327 325 325 325 324 322
323 321 319 319 319 318 317 317 318 319 319 320 322 321 320 321 322 323 324 327 328 328 329 329 329 329 329 329 329 329 329 328 328 328 328 328 327 326 326 325 323 322
323 321 320 321 321 318 318 317 317 319 319 320 321 321 320 321 322 322 324 326 327 327 328 328 329 329 328 328 327 328 328 328 328 327 328 329 329 328 327 325 325 324
323 321 322 323 322 319 318 317 318 321 322 321 320 321 320 321 321 322 323 325 325 326 327 327 328 328 326 325 325 325 326 326 326 327 328 329 329 328 327 326 326 326
323 321 324 326 323 321 318 317 319 323 324 321 320 321 321 321 321 322 323 325 326 326 327 327 326 325 324 323 322 322 323 324 325 327 329 329 329 328 327 327 327 325
324 322 326 326 325 323 319 319 322 323 321 320 320 321 321 321 321 321 323 326 326 326 326 326 325 324 323 322 322 322 322 324 326 327 328 328 327 327 327 327 327 326
326 324 328 328 326 324 321 323 326 323 320 320 321 321 321 321 321 321 323 325 326 326 325 325 324 323 324 325 324 323 323 325 326 326 326 326 326 326 327 327 327 326
327 327 332 331 327 325 325 326 326 321 320 321 321 321 322 321 321 321 323 325 325 324 324 323 323 323 325 327 327 326 325 326 327 327 327 327 327 327 326 326 327 327
329 330 336 333 328 328 330 328 322 320 321 321 321 322 322 321 321 321 322 323 323 323 322 322 323 324 326 328 328 327 326 326 327 327 327 327 327 327 326 326 326 327
330 332 338 335 330 332 332 326 320 320 321 321 322 322 322 321 321 321 321 322 322 322 322 322 323 324 326 328 329 328 327 327 327 327 327 327 327 327 326 326 326 326
332 332 337 336 333 332 329 323 321 321 321 322 322 322 321 321 321 321 321 322 322 322 322 322 323 325 327 328 329 328 327 327 327 327 327 327 327 327 325 324 325 326
337 335 336 336 334 331 327 323 322 323 321 322 322 321 322 321 321 321 321 321 322 323 323 323 323 324 326 328 329 328 327 327 327 327 327 327 328 326 324 324 324 325
340 336 335 337 335 332 328 324 324 324 323 322 322 321 322 321 321 321 321 321 322 324 324 324 324 324 325 326 328 329 328 328 328 328 328 328 328 326 324 323 324 324
341 337 336 338 336 332 329 326 326 327 326 324 322 322 322 321 321 321 321 322 322 323 324 325 325 325 325 326 328 329 329 329 328 328 328 328 327 326 325 323 324 324
340 338 337 338 335 332 331 331 330 330 328 324 323 323 323 322 322 322 322 322 322 323 325 326 327 327 326 326 327 329 329 330 329 328 328 328 327 327 325 324 324 324
340 340 338 336 334 331 333 334 333 331 329 327 328 330 329 327 325 325 324 323 322 323 324 325 326 327 326 327 327 328 329 329 329 329 328 328 327 326 325 324 324 324
340 340 339 337 335 333 333 335 334 333 333 334 335 336 335 334 333 332 330 328 327 326 326 325 325 326 327 328 328 329 330 329 329 329 328 328 327 325 324 324 323 323
Wind_Speed
20 19 18 18 17 14 13 12 12 12 12 11 10 9 9 8 8 9 8 7 7 8 8 8 8 8 8 8 8 8 8 8 7 7 7 7 7 7 8 8 8 8
21 19 19 18 17 14 12 12 12 12 11 10 10 9 8 7 7 8 7 6 6 7 9 9 9 9 9 9 9 9 9 9 8 8 7 7 8 8 8 9 10 10
22 20 20 18 15 13 12 12 12 12 11 11 10 9 7 6 6 7 6 5 5 6 7 8 9 8 8 9 9 9 9 8 8 9 8 8 9 9 10 10 11 11
22 21 20 17 14 13 13 13 13 12 12 11 10 8 6 6 7 7 6 4 3 4 5 5 4 5 5 6 8 8 9 9 9 9 10 10 10 10 11 12 12 12
23 21 19 16 15 14 14 13 13 12 12 11 10 9 8 8 8 8 6 5 3 3 4 3 2 2 4 5 6 7 8 9 10 11 11 11 11 12 12 13 14 14
24 22 19 17 16 15 14 13 12 12 12 11 10 10 9 9 9 8 6 6 5 5 5 5 4 4 5 6 7 8 8 8 10 12 13 12 12 13 13 13 14 15
26 22 20 18 17 16 15 13 13 13 12 11 12 12 10 9 9 8 7 7 7 7 8 8 7 6 7 9 10 11 11 10 10 11 14 14 13 13 13 14 15 16
26 23 20 19 17 16 15 14 14 13 12 13 13 13 11 9 8 8 8 8 9 10 10 10 10 9 9 11 13 14 13 12 11 11 13 14 14 14 14 14 15 16
27 24 21 19 17 17 16 15 14 13 14 14 13 12 11 9 8 8 9 10 12 13 13 13 12 12 12 14 15 16 15 14 13 13 14 15 15 15 14 14 15 16
27 25 22 19 18 17 16 15 14 14 15 15 13 12 11 10 9 9 10 12 14 14 14 14 14 14 14 15 16 17 17 16 15 14 15 15 16 15 15 14 15 15
29 26 23 20 18 17 16 15 14 15 14 13 12 12 11 10 10 11 12 13 14 15 15 15 15 15 16 16 17 18 18 17 16 14 14 15 16 15 15 14 14 15
30 28 24 21 19 17 16 14 15 14 10 10 13 13 12 12 12 12 12 13 15 16 16 17 17 18 18 18 18 18 18 18 17 15 14 15 16 16 15 14 14 15
32 29 24 20 19 17 15 15 17 12 8 9 14 15 13 13 12 11 12 14 16 17 17 18 19 19 20 20 19 19 19 18 17 15 15 15 16 15 14 14 14 16
32 29 23 19 19 18 16 18 17 11 8 11 16 16 14 13 12 12 14 16 17 18 18 19 19 20 20 20 19 19 18 17 16 16 16 15 16 15 14 14 15 16
32 29 24 19 18 17 18 17 12 10 11 15 18 17 15 14 13 14 16 18 19 19 19 19 20 20 19 18 17 17 17 17 16 16 15 15 15 15 15 16 16 17
32 29 26 21 18 19 20 13 11 12 18 19 19 18 16 15 15 16 17 19 20 20 20 20 20 19 17 15 15 14 14 14 14 13 13 14 15 16 17 18 18 18
31 30 28 21 18 19 16 14 14 19 22 21 20 19 17 17 17 18 19 20 21 20 20 20 19 18 15 13 13 13 13 13 13 13 13 14 16 17 19 19 20 20
32 32 28 22 19 16 17 17 19 24 24 22 22 21 19 19 19 19 19 20 20 21 21 20 19 17 15 13 13 14 15 15 15 15 15 16 17 19 20 21 21 22
32 33 30 25 20 18 19 21 24 25 24 23 22 22 21 21 21 20 20 21 21 21 21 20 19 18 16 14 14 15 16 17 17 17 17 17 19 20 21 21 22 22
32 34 31 25 20 17 20 26 27 26 25 23 24 24 24 23 22 21 21 21 21 22 21 21 20 19 17 15 15 16 17 19 19 18 18 19 20 21 22 21 21 22
33 36 32 26 20 17 23 28 28 26 25 25 26 26 25 24 23 23 23 22 23 23 22 22 22 20 18 17 16 17 18 19 20 20 19 20 21 22 22 21 20 21
36 38 32 24 18 18 24 29 29 27 26 26 26 27 27 26 25 25 24 24 24 23 24 25 24 22 21 19 17 17 19 21 21 21 20 21 22 22 21 20 20 20
37 39 30 20 17 18 21 23 26 28 27 26 26 28 28 27 27 27 26 25 26 26 27 27 26 25 24 21 19 19 22 23 23 22 22 23 23 22 21 20 19 19
38 39 30 21 18 17 17 19 23 27 27 26 26 28 28 27 27 27 26 27 28 29 29 27 26 25 25 25 23 21 23 25 25 24 25 25 24 22 21 20 18 18
36 36 30 24 21 18 17 18 20 22 23 24 25 27 28 27 27 27 28 29 31 31 30 29 27 26 26 28 27 25 24 24 25 26 27 27 25 21 20 19 18 17
33 31 27 25 24 21 19 18 17 17 20 23 25 27 28 29 29 29 29 30 31 32 32 32 31 29 28 29 29 29 28 26 25 28 29 28 24 21 19 18 16 16
Wind_Direction
216 218 219 219 217 217 220 222 223 222 222 224 229 234 235 236 236 230 226 230 237 244 249 255 259 259 256 252 249 251 254 253 253 255 261 270 276 278 283 285 283 282
214 216 216 215 215 215 217 219 222 224 224 225 228 230 231 233 230 220 216 222 234 244 250 255 260 262 261 258 253 251 252 253 256 259 262 266 271 273 276 278 278 281
213 214 214 214 215 215 216 218 219 220 220 220 223 227 229 226 214 199 194 205 227 245 253 257 259 263 267 266 262 257 255 257 259 260 262 264 268 271 272 273 276 280
211 213 215 214 214 214 217 217 215 216 216 217 221 223 216 213 201 182 175 184 208 236 243 247 256 270 278 279 278 276 273 272 266 261 262 262 265 270 271 271 274 278
210 213 213 211 212 214 218 217 214 215 215 216 220 213 203 202 190 176 178 189 200 214 220 228 253 287 300 299 297 297 292 284 275 265 263 262 264 270 273 274 276 278
211 211 210 211 212 216 220 218 215 216 216 218 218 208 202 197 186 184 197 207 212 227 239 251 265 281 295 297 298 302 304 297 284 271 266 266 268 270 274 277 279 279
210 209 209 210 211 216 220 217 216 218 217 219 216 209 208 204 197 202 214 218 224 237 247 256 267 277 283 285 290 297 301 304 298 281 272 272 272 272 274 277 279 280
210 207 208 209 210 216 218 215 218 220 218 219 216 214 218 219 213 212 219 230 237 242 247 253 261 269 272 275 281 286 289 296 303 296 283 276 274 273 273 276 280 283
211 207 207 210 211 214 216 215 218 220 221 220 217 219 230 234 229 228 235 244 247 247 249 251 255 260 263 266 271 275 281 289 299 302 293 280 274 273 273 276 281 284
212 207 207 209 211 215 215 212 216 221 223 220 217 225 240 247 246 249 252 253 256 256 255 256 259 261 262 263 267 270 276 284 293 297 292 280 272 273 276 278 281 285
212 208 207 206 210 214 210 209 215 219 220 223 227 234 244 249 250 254 257 260 266 267 266 267 270 272 271 270 269 270 273 280 286 288 284 276 271 272 277 279 283 288
214 208 203 204 209 209 207 207 208 210 221 232 236 241 242 243 248 252 258 267 273 274 273 275 278 278 277 276 275 273 274 278 281 279 276 272 271 272 275 279 286 292
213 205 198 203 207 203 204 203 198 213 257 243 230 238 240 240 247 252 261 270 272 273 274 276 277 277 277 278 278 277 276 276 276 272 270 270 271 271 271 277 287 293
210 202 196 200 203 203 204 199 202 232 260 228 225 237 238 239 248 253 261 267 267 269 271 271 272 273 275 277 277 277 275 272 270 267 266 269 270 268 269 276 286 291
207 200 196 196 202 205 198 199 223 243 219 214 228 237 236 241 250 253 259 264 265 268 268 268 268 270 272 274 273 273 270 266 265 265 266 269 268 267 270 275 282 288
203 199 196 196 203 200 195 216 258 233 211 221 232 234 238 245 248 254 260 264 266 268 266 266 267 267 268 271 273 270 265 260 260 261 265 269 270 272 277 279 281 284
200 198 197 197 199 197 211 247 246 216 215 228 232 235 244 246 249 255 259 263 266 266 264 264 265 264 262 267 274 270 261 256 256 259 265 270 276 281 284 284 282 281
197 200 198 194 198 216 246 248 220 213 224 230 232 240 245 246 252 256 258 263 263 262 264 265 265 262 260 264 270 267 260 258 259 263 269 274 280 285 287 286 281 279
198 200 197 197 210 235 247 230 215 221 228 228 234 243 244 248 255 256 259 262 261 262 267 268 267 266 263 265 269 265 260 260 263 268 273 278 283 286 288 284 279 277
204 201 199 208 223 234 230 221 220 225 228 231 239 243 245 251 254 258 262 262 261 264 267 268 271 271 267 267 269 267 262 261 264 270 273 278 283 287 289 284 278 275
209 203 206 216 223 227 226 224 223 227 231 237 242 245 249 254 256 260 263 262 262 264 264 267 271 271 270 268 267 268 265 263 266 269 272 277 283 288 290 286 280 275
209 206 211 219 220 225 228 225 224 229 235 240 246 251 254 257 259 262 263 264 265 263 262 263 263 264 267 263 261 265 267 267 269 270 272 276 281 287 290 287 281 276
210 209 217 226 224 226 231 229 229 233 238 245 252 256 259 262 265 266 268 269 268 265 264 263 262 265 267 262 256 259 265 269 271 269 271 273 276 283 289 286 281 278
213 215 223 229 227 234 247 246 241 240 245 254 261 265 268 270 270 270 270 271 269 268 269 269 268 269 271 268 261 255 259 267 268 266 268 268 271 280 286 284 281 277
213 218 226 229 230 244 262 260 251 251 256 265 271 275 276 274 272 272 272 271 271 272 272 272 271 268 269 269 265 258 257 262 264 264 263 262 268 279 283 281 281 279
216 223 232 234 236 251 268 267 261 264 270 274 279 281 281 279 278 277 276 274 275 276 275 275 273 271 269 269 267 262 259 259 261 261 259 260 269 278 278 279 281 281